SCP
-0 -0 0 -0 -0 0 0 0 0 0 0 0 0 0 0 -0 0 0 0 0 0 0 0 0 -0 0 0 0 0 0 0 0 0 0 0 0 0 0 0 -0 -0 -0 -0 -0 -0 0 -0 0 0
-0 -0 -0 0 -0 0 0 0 0 0 0 0 0 0 0 0 0 0 0 0 0 0 0 0 0 0 0 0 0 0 0 0 0 0 0 0 0 0 0 0 0 0 -0 -0 -0 0 0 0 0
0 0 0 0 0 -0 0 0 0 0 0 0 0 0 0 0 0 0 0 0 0 0 0 0 0 0 0 0 0 0 0 0 0 0 0 0 0 0 0 0 0 0 0 0 0 0 0 0 0
0 0 0 0 -0 0 0 0 0 0 0 0 0 0 0 0 0 0 0 0 0 0 0 0 -0 -0 -0 -0 -0 0 0 0 0 0 0 0 0 0 0 0 0 0 0 0 0 0 0 0 0
0 0 0 0 0 0 0 0 0 0 0 0 0 0 0 0 0 0 0 0 0 0 0 -0 -0 -0 -0 -0 0 0 0 0 0 0 0 0 0 0 0 0 0 0 0 0 0 0 0 0 0
0 0 0 0 0 0 0 0 0 0 0 0 0 0 0 0 0 0 0 0 0 0 0 0 -0 0 0 0 0 0 0 0 0 0 0 0 0 0 0 0 0 0 0 0 0 0 0 0 0
0 0 0 0 0 0 0 0 0 0 0 0 0 0 0 0 0 0 0 0 0 0 0 0 0 0 0 0 0 0 0 0 0 0 0 0 0 0 0 0 0 0 0 0 0 0 0 0 0
0 0 0 0 0 0 0 0 0 0 0 0 0 -0 -0 0 -0 0 -0 -0 -0 0 0 0 0 0 0 0 0 0 0 0 0 0 0 0 0 0 0 0 0 0 0 0 0 0 0 0 0
0 0 0 0 0 0 0 0 0 0 0 0 0 0 0 -0 -0 0 -0 -0 0 0 0 0 0 0 0 0 0 0 0 0 0 0 0 0 0 0 0 0 0 0 0 0 0 0 0 0 0
0 0 0 0 0 0 0 0 0 0 0 0 0 0 0 0 -0 0 0 0 0 0 0 0 0 0 0 0 0 0 0 0 0 0 0 0 0 0 0 0 0 0 0 0 0 0 0 0 0
0 0 0 0 0 0 0 0 0 0 0 0 -0 -0 0 -0 -0 -0 0 0 0 0 0 0 0 0 0 0 0 0 0 0 0 0 0 0 0 0 0 0 0 0 0 0 0 0 0 0 0
0 0 0 0 0 0 0 0 0 0 0 0 0 0 0 -0 -0 -0 0 0 0 0 0 0 0 0 0 0 0 0 0 0 0 0 0 0 0 0 0 0 0 0 0 0 0 0 0 0 0
0 0 0 0 0 0 0 0 0 -0 -0 -0 0 0 0 -0 -0 0 0 0 0 0 0 0 0 0 0 0 0 0 0 0 0 0 0 0 0 0 0 0 0 0 0 0 0 0 0 0 0
0 0 0 0 0 0 0 0 0 0 0 0 -0 -0 0 0 0 0 0 0 0 0 0 0 0 0 0 0 0 0 0 0 0 0 0 0 0 0 0 0 0 0 0 0 0 0 0 0 0
0 0 0 0 0 0 0 0 0 0 0 0 0 0 0 0 0 0 0 0 0 0 0 0 0 0 0 0 0 0 0 0 0 0 0 0 0 0 0 0 0 0 0 0 0 0 0 0 0
0 0 0 0 0 0 0 0 0 0 0 0 0 0 0 0 0 0 0 0 0 0 0 0 0 0 0 0 0 0 0 0 0 0 0 0 0 0 0 0 0 0 0 0 0 0 0 0 0
0 0 0 0 0 0 0 0 0 0 0 0 0 0 0 0 0 0 0 0 0 0 0 0 0 0 0 0 0 0 0 0 0 0 0 0 0 0 0 0 0 0 0 0 0 0 0 0 0
0 0 0 0 0 0 0 0 0 0 0 0 0 0 0 0 0 0 0 0 0 0 0 0 0 0 0 0 0 0 0 0 0 0 0 0 0 0 0 0 0 0 0 0 0 0 0 0 0
0 0 0 0 0 0 0 0 0 0 0 0 0 0 0 0 0 0 0 0 0 0 0 0 0 0 0 0 0 0 0 0 0 0 0 0 0 0 0 0 0 0 0 0 0 0 0 0 0
0 0 0 0 0 0 0 0 0 0 0 0 0 0 0 0 0 0 0 0 0 0 0 0 0 0 0 0 0 0 0 0 0 0 0 0 0 0 0 0 0 0 0 0 0 0 0 0 0
0 0 0 0 0 0 0 -0 0 0 0 0 0 0 0 0 0 0 0 0 0 0 0 0 0 0 0 0 0 0 0 0 0 0 0 0 0 0 0 0 0 0 0 0 0 0 0 0 0
0 0 0 0 0 0 0 0 0 0 0 0 0 0 0 0 0 0 0 0 0 0 0 0 0 0 0 0 0 0 0 0 0 0 0 0 0 0 0 0 0 0 0 0 0 0 0 0 0
0 0 0 0 0 0 0 0 -0 0 0 0 0 0 0 0 0 0 0 0 0 0 0 0 0 0 0 0 0 0 0 0 0 0 0 0 0 0 0 0 0 0 0 0 0 0 0 0 0
0 0 0 0 0 0 0 0 0 0 0 0 0 0 0 0 0 0 0 0 0 0 0 0 0 0 0 0 0 0 0 0 0 0 0 0 0 0 0 0 0 0 0 0 0 0 0 0 0
0 0 0 0 0 0 0 0 0 0 0 0 0 0 0 0 0 0 0 0 0 0 0 0 0 0 0 0 0 0 0 0 0 0 0 0 0 0 0 0 0 0 0 0 0 0 0 0 0
0 0 0 0 0 0 0 0 0 0 0 0 0 0 0 0 0 0 0 0 0 0 0 0 0 0 0 0 0 0 0 0 0 0 0 0 0 0 0 0 0 0 0 0 0 0 0 0 0
0 0 0 0 0 0 0 0 0 0 0 0 0 0 0 0 0 0 0 0 0 0 0 0 0 0 0 0 0 0 0 0 0 0 0 0 0 0 0 0 0 0 0 0 0 0 0 0 0
0 0 0 0 0 0 0 0 0 0 0 0 0 0 0 0 0 0 0 0 0 0 0 0 0 0 0 0 0 0 0 0 0 0 0 0 0 0 0 0 0 0 0 0 0 0 0 0 0
0 0 0 0 0 0 0 0 0 0 0 0 0 0 0 0 0 0 0 0 0 0 0 0 0 0 0 0 0 0 0 0 0 0 0 0 0 0 0 0 0 0 0 0 0 0 0 0 0
0 0 0 0 0 0 0 0 0 0 0 0 0 0 0 0 0 0 0 0 0 0 0 0 0 0 0 0 0 0 0 0 0 0 0 0 0 0 0 0 0 0 0 0 0 0 0 0 0
Wind_Speed_500mb
21 23 18 10 12 11 17 9 4 16 16 3 2 6 8 20 12 4 18 13 12 5 3 6 10 11 11 10 10 8 10 13 16 18 19 23 23 21 19 18 17 17 14 16 18 13 17 20 13
20 19 12 14 15 18 17 12 20 15 16 18 12 5 4 9 11 14 17 13 9 7 6 5 6 10 15 15 14 15 15 16 18 20 19 21 24 26 25 23 21 19 17 17 19 20 18 18 19
19 11 17 8 18 23 11 19 16 18 21 14 8 0 3 12 12 13 18 10 5 6 10 10 11 13 15 17 19 22 22 22 21 24 23 20 22 25 27 29 28 26 24 22 21 23 24 26 30
7 10 14 18 29 23 13 14 18 24 12 11 6 8 7 12 14 13 14 11 6 9 16 17 19 19 19 21 23 23 23 25 26 24 27 24 29 32 34 32 30 31 31 32 30 29 30 33 36
9 17 21 26 33 8 5 16 21 22 19 15 13 7 4 10 16 15 12 9 7 12 17 21 22 21 22 22 22 23 24 27 30 29 26 28 31 33 33 36 39 38 36 36 39 39 38 38 40
21 18 20 28 31 14 13 18 22 22 18 13 11 8 8 14 17 15 10 7 6 6 5 9 9 9 12 16 20 23 24 26 28 29 30 31 35 36 36 39 41 43 45 47 48 44 45 44 44
28 18 29 32 26 18 21 21 25 24 20 19 1 10 7 17 19 16 11 8 5 1 4 7 9 11 10 10 8 10 13 17 20 24 27 31 34 37 39 41 44 45 47 50 53 54 53 50 51
21 16 32 22 21 24 21 25 14 18 18 11 9 7 7 24 24 19 14 10 7 4 2 2 5 8 10 13 14 15 17 19 20 21 22 23 25 25 28 30 35 42 46 47 51 53 55 55 56
11 14 21 28 22 22 25 26 14 9 9 13 14 6 9 27 25 20 17 14 12 8 4 1 4 7 9 12 15 17 19 20 22 24 24 27 29 30 31 33 35 38 38 40 44 50 56 57 59
21 20 23 9 2 7 24 29 22 15 24 25 23 18 19 25 26 25 22 20 17 14 9 6 4 3 6 9 14 16 19 21 23 24 25 26 29 31 33 35 36 38 39 41 45 48 48 50 58
15 17 6 7 3 6 19 18 11 17 22 28 25 31 31 32 30 29 27 23 20 18 15 12 8 5 6 10 16 22 27 30 32 33 34 34 34 35 37 39 41 43 43 44 47 47 46 49 53
14 3 6 7 5 5 11 2 12 33 21 6 15 19 37 39 37 35 32 28 24 22 17 15 11 7 8 12 16 21 25 27 28 30 32 35 38 40 42 43 44 47 50 53 53 53 53 55 56
13 8 5 6 5 4 6 19 21 33 42 29 17 24 39 39 38 35 31 29 27 24 21 16 11 8 8 13 18 23 27 31 35 37 38 40 43 45 47 48 51 52 54 54 55 57 59 61 62
2 8 7 6 4 5 9 15 5 16 29 41 33 32 39 42 41 36 36 33 30 27 22 18 14 8 9 14 19 26 32 35 40 41 42 44 46 49 52 54 55 56 57 60 64 63 62 63 64
11 4 5 16 9 4 4 20 38 48 15 37 44 40 40 43 42 43 37 34 30 27 24 22 15 9 8 14 21 28 34 37 40 41 42 44 47 50 53 56 56 57 59 64 65 64 64 66 65
7 5 8 13 11 6 4 22 9 32 32 30 42 45 45 47 45 42 39 34 33 29 28 24 19 12 10 15 22 29 35 37 39 38 41 44 48 52 56 58 58 59 62 63 63 62 64 66 67
11 9 17 7 11 2 19 19 12 9 25 36 39 45 49 45 47 46 44 40 37 33 30 29 22 17 15 19 25 32 38 39 38 39 41 45 50 54 59 62 64 64 65 62 61 59 59 65 70
11 12 8 16 9 14 20 41 35 21 21 31 35 42 46 50 54 49 47 45 41 37 38 35 28 22 20 23 28 34 38 38 40 40 44 48 52 55 60 64 65 65 64 63 61 62 63 64 70
9 9 13 6 6 8 27 37 39 39 41 45 48 43 42 51 47 47 48 46 47 50 48 44 34 28 26 28 31 34 38 40 41 43 46 48 52 56 61 64 65 64 63 61 61 61 61 62 53
10 13 19 5 4 7 21 36 44 41 47 57 53 52 55 51 48 49 50 51 57 57 53 45 40 34 32 31 33 38 41 42 43 45 48 53 55 59 61 62 63 62 65 62 56 51 53 54 44
12 16 6 7 8 12 19 22 19 7 14 30 46 44 47 50 50 51 55 57 56 59 57 50 43 38 35 32 36 42 42 43 42 44 52 53 56 58 59 61 62 64 62 62 64 63 59 64 62
12 4 1 3 6 9 4 14 19 11 16 17 23 27 29 32 36 46 56 60 56 59 56 51 47 40 35 32 36 40 40 43 45 50 53 56 57 56 59 60 60 60 60 64 67 58 60 62 67
5 4 4 3 8 9 12 10 9 5 12 12 7 26 24 24 29 37 46 55 53 55 56 55 48 41 36 32 35 40 41 43 49 52 55 57 56 58 57 58 59 59 60 61 60 61 61 65 70
14 3 1 1 4 8 11 10 8 14 5 10 9 16 16 18 21 25 31 43 48 49 60 56 49 40 36 32 37 41 43 44 48 50 55 55 56 55 55 56 58 60 61 63 66 68 69 66 72
3 3 4 5 6 9 5 8 23 7 10 6 16 14 15 17 19 22 30 41 47 56 61 57 50 43 37 35 39 43 43 43 46 49 51 54 56 55 55 55 56 58 59 63 67 71 73 76 75
14 5 7 10 7 3 4 14 10 4 8 8 15 16 19 20 21 23 26 32 41 50 51 55 51 45 40 40 42 43 41 42 45 47 49 50 53 55 54 53 54 56 60 65 71 76 82 84 79
12 14 5 3 3 6 12 17 23 15 28 25 22 26 25 23 24 25 26 29 34 41 50 55 53 48 44 45 44 43 40 41 43 43 46 48 49 50 50 49 52 55 61 68 73 81 88 82 86
8 3 6 7 7 10 9 12 22 5 11 12 21 33 30 27 22 23 23 24 31 41 47 53 53 50 48 48 46 41 38 39 40 41 42 43 45 45 44 46 51 58 64 70 78 89 86 85 86
11 9 6 3 6 7 9 10 6 6 11 9 6 19 28 25 20 22 17 19 30 37 44 48 53 53 52 50 46 38 36 36 37 38 39 41 41 40 41 46 53 59 67 77 85 90 86 82 87
4 12 22 10 12 9 5 20 2 2 4 7 15 15 13 15 18 25 15 27 34 38 43 49 53 53 51 50 43 36 35 33 33 33 35 37 37 35 38 46 53 64 76 85 90 90 82 83 88
Wind_Direction_500mb
312 341 334 279 236 235 241 181 0 164 165 142 167 272 26 39 357 33 142 147 151 151 182 226 242 264 277 282 289 292 287 293 294 291 290 295 300 300 309 311 313 321 316 311 301 297 302 254 228
314 330 293 268 252 225 225 150 201 168 116 131 127 151 162 89 84 121 156 178 174 195 218 235 261 260 268 276 282 283 281 286 289 286 285 285 288 293 293 293 295 296 300 305 302 293 289 267 255
312 326 285 258 242 251 263 175 169 163 155 164 149 37 117 127 129 136 194 186 188 241 251 262 271 273 273 275 276 276 274 280 288 291 288 291 299 302 297 294 294 286 281 284 289 292 282 264 269
299 250 244 248 248 244 278 180 161 159 173 193 204 180 105 150 149 161 175 199 219 257 270 276 275 271 267 268 274 280 279 283 289 293 288 286 295 295 296 295 295 291 286 275 275 279 278 276 269
243 245 251 239 249 250 228 168 181 182 168 175 188 153 154 183 182 180 196 212 239 271 280 284 279 273 269 269 271 275 282 285 287 290 289 291 289 286 289 289 290 291 288 282 277 273 270 269 272
238 250 238 240 239 190 207 182 189 198 177 158 197 177 166 180 182 196 203 230 250 276 309 330 331 312 286 277 277 280 282 284 286 288 289 290 288 286 286 284 286 284 287 287 284 275 271 267 264
242 229 249 256 265 173 204 187 198 203 187 193 220 232 131 182 182 197 198 196 199 283 7 25 27 35 34 23 355 326 311 305 304 302 299 296 292 291 288 287 286 286 284 277 278 278 276 273 267
242 254 258 252 242 231 169 183 197 206 193 155 187 230 209 195 194 195 192 190 197 232 252 354 30 31 21 16 9 359 350 344 339 334 330 326 324 323 317 310 300 291 285 282 282 284 285 280 273
214 240 242 239 239 224 163 194 182 203 199 192 206 218 164 171 190 191 191 196 201 212 213 212 13 13 11 10 3 355 348 340 335 333 332 330 328 324 321 317 312 307 304 299 290 284 279 279 281
215 234 252 20 289 228 185 205 183 203 206 219 220 211 196 191 188 191 194 199 199 203 223 242 252 309 357 5 359 351 346 345 338 334 333 332 328 330 328 327 324 319 313 307 301 297 294 287 279
202 247 91 93 119 268 182 214 197 224 233 227 225 219 202 197 198 201 202 202 206 206 219 235 257 291 337 347 347 350 347 347 342 339 335 333 332 333 334 334 331 327 321 315 310 306 298 291 288
226 245 306 138 158 169 190 229 233 232 238 219 227 220 200 201 206 204 204 206 208 215 223 237 252 282 316 339 348 346 343 338 334 329 326 326 328 329 329 329 327 325 322 319 316 311 306 300 293
241 176 159 161 154 197 274 242 251 252 242 244 234 207 203 206 207 208 208 209 211 216 224 235 247 271 307 335 341 341 342 339 334 332 328 328 328 327 326 327 325 323 320 317 314 311 308 304 300
131 174 166 194 194 220 261 257 257 247 233 228 223 215 208 209 208 208 210 210 213 218 221 229 240 255 304 338 343 344 341 335 334 331 328 327 327 326 325 324 323 322 320 317 314 311 308 304 300
142 193 251 213 200 233 273 254 237 237 244 213 216 217 214 215 212 213 216 215 216 220 221 225 233 251 310 337 342 342 337 332 330 327 326 325 324 323 322 321 321 320 316 313 311 309 306 304 301
213 249 229 131 187 155 167 261 190 219 212 221 219 221 218 219 217 216 215 215 212 209 215 220 224 240 286 319 333 334 334 331 329 327 325 323 324 324 323 321 319 316 313 311 309 306 303 300 298
211 253 221 181 200 193 216 276 90 174 220 235 229 226 224 224 222 218 217 213 210 211 213 218 221 242 279 312 321 329 332 330 329 327 324 323 323 323 321 320 318 316 313 310 308 304 301 299 297
198 227 223 243 153 220 234 257 269 250 235 240 239 232 230 227 225 219 216 214 212 212 213 219 228 248 278 298 311 323 328 328 325 324 323 322 322 321 319 318 317 314 312 310 307 303 300 295 296
320 266 252 131 129 254 241 262 270 268 256 244 240 234 229 229 228 220 216 212 212 214 218 221 234 253 272 291 304 313 320 320 321 319 319 322 322 321 321 318 316 314 311 308 306 305 303 301 298
246 258 255 131 167 261 293 280 277 263 249 244 244 239 236 234 227 218 213 209 214 218 220 224 236 250 268 283 298 309 314 317 318 318 321 325 323 322 320 318 316 314 311 309 306 303 300 293 294
236 248 248 296 302 241 294 269 243 219 244 248 241 245 242 235 228 220 213 212 210 214 220 225 237 248 265 283 300 308 313 319 318 315 319 323 322 321 320 320 317 315 311 307 304 305 303 298 291
243 52 108 310 312 292 323 291 286 251 223 219 228 219 221 218 219 218 215 214 211 214 218 226 234 247 262 280 298 306 308 311 314 316 319 322 322 322 322 320 317 315 311 308 307 306 303 302 296
40 49 39 353 282 314 179 247 249 175 251 180 201 208 200 203 210 211 210 212 209 211 218 225 234 245 258 275 296 303 302 308 312 316 319 321 323 324 322 320 319 319 318 313 309 307 302 295 292
128 102 79 243 265 253 162 225 262 235 196 143 141 166 183 194 197 198 200 196 199 211 218 224 234 244 256 276 293 301 300 305 312 317 319 322 323 322 322 322 323 323 319 319 313 308 300 292 286
230 192 237 225 198 253 126 214 264 223 175 166 146 153 169 172 169 167 175 186 194 212 221 228 234 242 251 271 289 298 297 305 313 316 318 322 323 324 324 324 326 323 321 319 314 309 304 299 289
188 270 251 262 226 56 133 232 240 45 107 189 230 212 175 174 172 176 185 192 200 216 224 228 234 241 251 269 287 296 295 305 311 315 318 322 322 323 327 329 329 329 328 323 318 313 310 308 297
154 212 7 318 121 277 235 242 277 247 229 228 217 194 191 181 183 188 193 204 214 226 230 234 238 243 254 269 283 292 293 302 309 312 316 321 323 326 329 332 333 333 330 327 320 315 314 302 296
255 43 173 207 246 248 215 267 255 222 220 207 198 201 195 190 193 197 202 225 240 241 241 240 242 248 257 269 281 285 289 300 306 311 316 321 325 328 331 334 337 336 334 331 327 325 316 305 300
174 209 202 338 231 256 280 247 337 299 183 175 167 189 199 195 198 196 199 253 259 253 246 248 247 251 259 268 277 277 287 297 305 310 319 323 327 329 335 339 343 341 340 339 334 329 316 310 305
289 227 184 216 196 230 298 251 324 148 232 213 189 181 190 186 183 175 252 260 260 258 252 250 251 252 259 267 270 271 282 295 303 312 319 324 328 332 339 343 345 342 340 339 338 331 329 315 307
Wind_Speed_850mb
21 23 18 10 12 11 17 9 4 16 16 3 2 6 8 20 12 4 18 13 12 5 3 6 10 11 11 10 10 8 10 13 16 18 19 23 23 21 19 18 17 17 14 16 18 13 17 20 13
20 19 12 14 15 18 17 12 20 15 16 18 12 5 4 9 11 14 17 13 9 7 6 5 6 10 15 15 14 15 15 16 18 20 19 21 24 26 25 23 21 19 17 17 19 20 18 18 19
19 11 17 8 18 23 11 19 16 18 21 14 8 0 3 12 12 13 18 10 5 6 10 10 11 13 15 17 19 22 22 22 21 24 23 20 22 25 27 29 28 26 24 22 21 23 24 26 30
7 10 14 18 29 23 13 14 18 24 12 11 6 8 7 12 14 13 14 11 6 9 16 17 19 19 19 21 23 23 23 25 26 24 27 24 29 32 34 32 30 31 31 32 30 29 30 33 36
9 17 21 26 33 8 5 16 21 22 19 15 13 7 4 10 16 15 12 9 7 12 17 21 22 21 22 22 22 23 24 27 30 29 26 28 31 33 33 36 39 38 36 36 39 39 38 38 40
21 18 20 28 31 14 13 18 22 22 18 13 11 8 8 14 17 15 10 7 6 6 5 9 9 9 12 16 20 23 24 26 28 29 30 31 35 36 36 39 41 43 45 47 48 44 45 44 44
28 18 29 32 26 18 21 21 25 24 20 19 1 10 7 17 19 16 11 8 5 1 4 7 9 11 10 10 8 10 13 17 20 24 27 31 34 37 39 41 44 45 47 50 53 54 53 50 51
21 16 32 22 21 24 21 25 14 18 18 11 9 7 7 24 24 19 14 10 7 4 2 2 5 8 10 13 14 15 17 19 20 21 22 23 25 25 28 30 35 42 46 47 51 53 55 55 56
11 14 21 28 22 22 25 26 14 9 9 13 14 6 9 27 25 20 17 14 12 8 4 1 4 7 9 12 15 17 19 20 22 24 24 27 29 30 31 33 35 38 38 40 44 50 56 57 59
21 20 23 9 2 7 24 29 22 15 24 25 23 18 19 25 26 25 22 20 17 14 9 6 4 3 6 9 14 16 19 21 23 24 25 26 29 31 33 35 36 38 39 41 45 48 48 50 58
15 17 6 7 3 6 19 18 11 17 22 28 25 31 31 32 30 29 27 23 20 18 15 12 8 5 6 10 16 22 27 30 32 33 34 34 34 35 37 39 41 43 43 44 47 47 46 49 53
14 3 6 7 5 5 11 2 12 33 21 6 15 19 37 39 37 35 32 28 24 22 17 15 11 7 8 12 16 21 25 27 28 30 32 35 38 40 42 43 44 47 50 53 53 53 53 55 56
13 8 5 6 5 4 6 19 21 33 42 29 17 24 39 39 38 35 31 29 27 24 21 16 11 8 8 13 18 23 27 31 35 37 38 40 43 45 47 48 51 52 54 54 55 57 59 61 62
2 8 7 6 4 5 9 15 5 16 29 41 33 32 39 42 41 36 36 33 30 27 22 18 14 8 9 14 19 26 32 35 40 41 42 44 46 49 52 54 55 56 57 60 64 63 62 63 64
11 4 5 16 9 4 4 20 38 48 15 37 44 40 40 43 42 43 37 34 30 27 24 22 15 9 8 14 21 28 34 37 40 41 42 44 47 50 53 56 56 57 59 64 65 64 64 66 65
7 5 8 13 11 6 4 22 9 32 32 30 42 45 45 47 45 42 39 34 33 29 28 24 19 12 10 15 22 29 35 37 39 38 41 44 48 52 56 58 58 59 62 63 63 62 64 66 67
11 9 17 7 11 2 19 19 12 9 25 36 39 45 49 45 47 46 44 40 37 33 30 29 22 17 15 19 25 32 38 39 38 39 41 45 50 54 59 62 64 64 65 62 61 59 59 65 70
11 12 8 16 9 14 20 41 35 21 21 31 35 42 46 50 54 49 47 45 41 37 38 35 28 22 20 23 28 34 38 38 40 40 44 48 52 55 60 64 65 65 64 63 61 62 63 64 70
9 9 13 6 6 8 27 37 39 39 41 45 48 43 42 51 47 47 48 46 47 50 48 44 34 28 26 28 31 34 38 40 41 43 46 48 52 56 61 64 65 64 63 61 61 61 61 62 53
10 13 19 5 4 7 21 36 44 41 47 57 53 52 55 51 48 49 50 51 57 57 53 45 40 34 32 31 33 38 41 42 43 45 48 53 55 59 61 62 63 62 65 62 56 51 53 54 44
12 16 6 7 8 12 19 22 19 7 14 30 46 44 47 50 50 51 55 57 56 59 57 50 43 38 35 32 36 42 42 43 42 44 52 53 56 58 59 61 62 64 62 62 64 63 59 64 62
12 4 1 3 6 9 4 14 19 11 16 17 23 27 29 32 36 46 56 60 56 59 56 51 47 40 35 32 36 40 40 43 45 50 53 56 57 56 59 60 60 60 60 64 67 58 60 62 67
5 4 4 3 8 9 12 10 9 5 12 12 7 26 24 24 29 37 46 55 53 55 56 55 48 41 36 32 35 40 41 43 49 52 55 57 56 58 57 58 59 59 60 61 60 61 61 65 70
14 3 1 1 4 8 11 10 8 14 5 10 9 16 16 18 21 25 31 43 48 49 60 56 49 40 36 32 37 41 43 44 48 50 55 55 56 55 55 56 58 60 61 63 66 68 69 66 72
3 3 4 5 6 9 5 8 23 7 10 6 16 14 15 17 19 22 30 41 47 56 61 57 50 43 37 35 39 43 43 43 46 49 51 54 56 55 55 55 56 58 59 63 67 71 73 76 75
14 5 7 10 7 3 4 14 10 4 8 8 15 16 19 20 21 23 26 32 41 50 51 55 51 45 40 40 42 43 41 42 45 47 49 50 53 55 54 53 54 56 60 65 71 76 82 84 79
12 14 5 3 3 6 12 17 23 15 28 25 22 26 25 23 24 25 26 29 34 41 50 55 53 48 44 45 44 43 40 41 43 43 46 48 49 50 50 49 52 55 61 68 73 81 88 82 86
8 3 6 7 7 10 9 12 22 5 11 12 21 33 30 27 22 23 23 24 31 41 47 53 53 50 48 48 46 41 38 39 40 41 42 43 45 45 44 46 51 58 64 70 78 89 86 85 86
11 9 6 3 6 7 9 10 6 6 11 9 6 19 28 25 20 22 17 19 30 37 44 48 53 53 52 50 46 38 36 36 37 38 39 41 41 40 41 46 53 59 67 77 85 90 86 82 87
4 12 22 10 12 9 5 20 2 2 4 7 15 15 13 15 18 25 15 27 34 38 43 49 53 53 51 50 43 36 35 33 33 33 35 37 37 35 38 46 53 64 76 85 90 90 82 83 88
Wind_Direction_850mb
312 341 334 279 236 235 241 181 0 164 165 142 167 272 26 39 357 33 142 147 151 151 182 226 242 264 277 282 289 292 287 293 294 291 290 295 300 300 309 311 313 321 316 311 301 297 302 254 228
314 330 293 268 252 225 225 150 201 168 116 131 127 151 162 89 84 121 156 178 174 195 218 235 261 260 268 276 282 283 281 286 289 286 285 285 288 293 293 293 295 296 300 305 302 293 289 267 255
312 326 285 258 242 251 263 175 169 163 155 164 149 37 117 127 129 136 194 186 188 241 251 262 271 273 273 275 276 276 274 280 288 291 288 291 299 302 297 294 294 286 281 284 289 292 282 264 269
299 250 244 248 248 244 278 180 161 159 173 193 204 180 105 150 149 161 175 199 219 257 270 276 275 271 267 268 274 280 279 283 289 293 288 286 295 295 296 295 295 291 286 275 275 279 278 276 269
243 245 251 239 249 250 228 168 181 182 168 175 188 153 154 183 182 180 196 212 239 271 280 284 279 273 269 269 271 275 282 285 287 290 289 291 289 286 289 289 290 291 288 282 277 273 270 269 272
238 250 238 240 239 190 207 182 189 198 177 158 197 177 166 180 182 196 203 230 250 276 309 330 331 312 286 277 277 280 282 284 286 288 289 290 288 286 286 284 286 284 287 287 284 275 271 267 264
242 229 249 256 265 173 204 187 198 203 187 193 220 232 131 182 182 197 198 196 199 283 7 25 27 35 34 23 355 326 311 305 304 302 299 296 292 291 288 287 286 286 284 277 278 278 276 273 267
242 254 258 252 242 231 169 183 197 206 193 155 187 230 209 195 194 195 192 190 197 232 252 354 30 31 21 16 9 359 350 344 339 334 330 326 324 323 317 310 300 291 285 282 282 284 285 280 273
214 240 242 239 239 224 163 194 182 203 199 192 206 218 164 171 190 191 191 196 201 212 213 212 13 13 11 10 3 355 348 340 335 333 332 330 328 324 321 317 312 307 304 299 290 284 279 279 281
215 234 252 20 289 228 185 205 183 203 206 219 220 211 196 191 188 191 194 199 199 203 223 242 252 309 357 5 359 351 346 345 338 334 333 332 328 330 328 327 324 319 313 307 301 297 294 287 279
202 247 91 93 119 268 182 214 197 224 233 227 225 219 202 197 198 201 202 202 206 206 219 235 257 291 337 347 347 350 347 347 342 339 335 333 332 333 334 334 331 327 321 315 310 306 298 291 288
226 245 306 138 158 169 190 229 233 232 238 219 227 220 200 201 206 204 204 206 208 215 223 237 252 282 316 339 348 346 343 338 334 329 326 326 328 329 329 329 327 325 322 319 316 311 306 300 293
241 176 159 161 154 197 274 242 251 252 242 244 234 207 203 206 207 208 208 209 211 216 224 235 247 271 307 335 341 341 342 339 334 332 328 328 328 327 326 327 325 323 320 317 314 311 308 304 300
131 174 166 194 194 220 261 257 257 247 233 228 223 215 208 209 208 208 210 210 213 218 221 229 240 255 304 338 343 344 341 335 334 331 328 327 327 326 325 324 323 322 320 317 314 311 308 304 300
142 193 251 213 200 233 273 254 237 237 244 213 216 217 214 215 212 213 216 215 216 220 221 225 233 251 310 337 342 342 337 332 330 327 326 325 324 323 322 321 321 320 316 313 311 309 306 304 301
213 249 229 131 187 155 167 261 190 219 212 221 219 221 218 219 217 216 215 215 212 209 215 220 224 240 286 319 333 334 334 331 329 327 325 323 324 324 323 321 319 316 313 311 309 306 303 300 298
211 253 221 181 200 193 216 276 90 174 220 235 229 226 224 224 222 218 217 213 210 211 213 218 221 242 279 312 321 329 332 330 329 327 324 323 323 323 321 320 318 316 313 310 308 304 301 299 297
198 227 223 243 153 220 234 257 269 250 235 240 239 232 230 227 225 219 216 214 212 212 213 219 228 248 278 298 311 323 328 328 325 324 323 322 322 321 319 318 317 314 312 310 307 303 300 295 296
320 266 252 131 129 254 241 262 270 268 256 244 240 234 229 229 228 220 216 212 212 214 218 221 234 253 272 291 304 313 320 320 321 319 319 322 322 321 321 318 316 314 311 308 306 305 303 301 298
246 258 255 131 167 261 293 280 277 263 249 244 244 239 236 234 227 218 213 209 214 218 220 224 236 250 268 283 298 309 314 317 318 318 321 325 323 322 320 318 316 314 311 309 306 303 300 293 294
236 248 248 296 302 241 294 269 243 219 244 248 241 245 242 235 228 220 213 212 210 214 220 225 237 248 265 283 300 308 313 319 318 315 319 323 322 321 320 320 317 315 311 307 304 305 303 298 291
243 52 108 310 312 292 323 291 286 251 223 219 228 219 221 218 219 218 215 214 211 214 218 226 234 247 262 280 298 306 308 311 314 316 319 322 322 322 322 320 317 315 311 308 307 306 303 302 296
40 49 39 353 282 314 179 247 249 175 251 180 201 208 200 203 210 211 210 212 209 211 218 225 234 245 258 275 296 303 302 308 312 316 319 321 323 324 322 320 319 319 318 313 309 307 302 295 292
128 102 79 243 265 253 162 225 262 235 196 143 141 166 183 194 197 198 200 196 199 211 218 224 234 244 256 276 293 301 300 305 312 317 319 322 323 322 322 322 323 323 319 319 313 308 300 292 286
230 192 237 225 198 253 126 214 264 223 175 166 146 153 169 172 169 167 175 186 194 212 221 228 234 242 251 271 289 298 297 305 313 316 318 322 323 324 324 324 326 323 321 319 314 309 304 299 289
188 270 251 262 226 56 133 232 240 45 107 189 230 212 175 174 172 176 185 192 200 216 224 228 234 241 251 269 287 296 295 305 311 315 318 322 322 323 327 329 329 329 328 323 318 313 310 308 297
154 212 7 318 121 277 235 242 277 247 229 228 217 194 191 181 183 188 193 204 214 226 230 234 238 243 254 269 283 292 293 302 309 312 316 321 323 326 329 332 333 333 330 327 320 315 314 302 296
255 43 173 207 246 248 215 267 255 222 220 207 198 201 195 190 193 197 202 225 240 241 241 240 242 248 257 269 281 285 289 300 306 311 316 321 325 328 331 334 337 336 334 331 327 325 316 305 300
174 209 202 338 231 256 280 247 337 299 183 175 167 189 199 195 198 196 199 253 259 253 246 248 247 251 259 268 277 277 287 297 305 310 319 323 327 329 335 339 343 341 340 339 334 329 316 310 305
289 227 184 216 196 230 298 251 324 148 232 213 189 181 190 186 183 175 252 260 260 258 252 250 251 252 259 267 270 271 282 295 303 312 319 324 328 332 339 343 345 342 340 339 338 331 329 315 307